EKRAN 2 DEB, 59987

Orbit data source: Space-Track

EKRAN 2 DEB, 59987 is space debris in GEO originally from a launch on Tue, 20 Sep 1977 UTC launched from the Tyuratam Missile And Space Complex (TTMTR). Debris objects in space refer to the collection of defunct objects orbiting the Earth. Examples of debris include non-operational satellites, rocket bodies, and fragments generated from explosions, collisions, or faulty payload assembly.

Not visible in the next 10 days
Identifier
59987, 1977-092N
Orbit
GEO
Country
Flag of CISCIS
Related business
Manufacturer
Unknown
Mission
Spacecraft
Bus & Motor
Unknown
Mass
Unknown
Launch date (UTC)
1977-09-20 (48 years ago)
Launch vehicle
Unknown
Launch site
Tyuratam Missile And Space Complex (TTMTR)
Object type
Payload
Rocket body
Debris
Shape & HBR
Unknown shape, 1.1 m
Radar Cross Section
RCS unknown

Expand to show TLE details & history
Last TLE update: 13 hours ago

TLE from 13 hours ago
0 EKRAN 2 DEB
1 59987U 77092N   26061.61065278 -.00000375  00000-0  00000+0 0  9998
2 59987   4.4002 275.3679 0011737 223.1825 355.3281  1.00193310 62048
Epoch: 2026-03-02T14:39Z
TLE epoch observation values (Epoch: 2026-03-02T14:39:20.400Z)
Latitude
-2.74087°
Longitude
113.5994°
Altitude
35,758.961 km
Speed
3.078 km/s
True Right ascension
08h 55m 20s
True Declination
-2° 44' 17"
Sunlit
Object was in daylight at epoch
Visualization orbit readout
Latitude
Unknown
Longitude
Unknown
Altitude
Unknown
Speed
Unknown
Apparent Right ascension
Unknown
Apparent Declination
Unknown
Sunlit
N/A
Visualization observer readout
Local Sidereal Time
07:13:18
Azimuth
Unknown
Elevation
Unknown
Doppler factor
Unknown
Orbital elements
Apogee altitude
35,859.185 km
Perigee altitude
35,760.154 km
Semi-major axis
42,187.806 km
Eccentricity
0.00117
Inclination
4.4002°
RAAN
275.3679°
Arg. of periapsis
223.1825°
True anomaly
355.31713°
Mean anomaly
355.3281°
Eccentric anomaly
355.32262°
Mean motion
0.25047 °/min
Orbital period
1,437.27 mins
BSTAR
0
Loading maneuver chart data...
Computing Atmospheric mass density...
Loading historical data...
Loading historical data...
Loading historical data...
Loading historical data...
Loading historical data...
Loading historical data...
Loading historical data...

Documentation

Showing up to 5 results
|